UAL101 KLAX-PHNL

Flight info

Callsign UAL101
Flight time 5h 30m
Altitude 38000
Route SUMMR2 DINTY DUETS 3335N12855W DADIE R576 DENNS MAGGI3
Aircraft B78X/H-SDE1E2E3FGHIJ2J3J4J5M1RWXY/LB1D1

Departure

Time 2026-04-26 17:50
Airport Los Angeles International Airport (KLAX)

Arrival

Time 2026-04-26 23:21
Airport Daniel K. Inouye International Airport (PHNL)
Time Latitude Longitude Altitude Speed Heading
2026-04-26 17:23 33.94025 -118.40918 131 ft 0 kts 264°
2026-04-26 17:29 33.94025 -118.40915 133 ft 2 kts 264°
2026-04-26 17:30 33.94025 -118.40910 131 ft 2 kts 264°
2026-04-26 17:30 33.94025 -118.40919 131 ft 0 kts 264°
2026-04-26 17:40 33.94025 -118.40910 131 ft 2 kts 264°
2026-04-26 17:40 33.94026 -118.40900 127 ft 3 kts 264°
2026-04-26 17:40 33.94029 -118.40867 131 ft 3 kts 263°
2026-04-26 17:40 33.94039 -118.40831 131 ft 6 kts 214°
2026-04-26 17:41 33.94052 -118.40826 126 ft 0 kts 174°
2026-04-26 17:43 33.94016 -118.40821 126 ft 17 kts 173°
2026-04-26 17:44 33.93884 -118.40833 126 ft 24 kts 216°
2026-04-26 17:44 33.93856 -118.41001 126 ft 11 kts 261°
2026-04-26 17:44 33.93850 -118.41107 131 ft 21 kts 275°
2026-04-26 17:44 33.93912 -118.41183 120 ft 2 kts 12°
2026-04-26 17:45 33.93992 -118.41181 128 ft 22 kts 352°
2026-04-26 17:45 33.94214 -118.41214 129 ft 40 kts 353°
2026-04-26 17:45 33.94511 -118.41257 128 ft 36 kts 353°
2026-04-26 17:46 33.94609 -118.41273 128 ft 14 kts 352°
2026-04-26 17:46 33.94704 -118.41287 128 ft 14 kts 354°
2026-04-26 17:46 33.94783 -118.41258 127 ft 12 kts 54°
2026-04-26 17:46 33.94809 -118.41138 129 ft 19 kts 80°
2026-04-26 17:47 33.94829 -118.40950 128 ft 26 kts 83°
2026-04-26 17:47 33.94845 -118.40785 131 ft 32 kts 83°
2026-04-26 17:47 33.94884 -118.40426 128 ft 32 kts 82°
2026-04-26 17:47 33.94929 -118.40313 128 ft 0 kts 42°
2026-04-26 17:48 33.94943 -118.40306 127 ft 9 kts 24°
2026-04-26 17:48 33.95005 -118.40356 126 ft 16 kts 284°
2026-04-26 17:48 33.95001 -118.40407 129 ft 0 kts 262°
2026-04-26 17:49 33.94994 -118.40448 131 ft 31 kts 259°
2026-04-26 17:49 33.94927 -118.41073 131 ft 117 kts 262°
2026-04-26 17:50 33.94795 -118.42321 224 ft 180 kts 258°
2026-04-26 17:50 33.94639 -118.43981 464 ft 235 kts 263°
2026-04-26 17:50 33.94436 -118.45951 671 ft 235 kts 262°
2026-04-26 17:50 33.94345 -118.47932 940 ft 232 kts 268°
2026-04-26 17:51 33.94277 -118.49897 1242 ft 228 kts 266°
2026-04-26 17:51 33.94118 -118.51845 1561 ft 233 kts 262°
2026-04-26 17:51 33.93973 -118.53778 1888 ft 235 kts 265°
2026-04-26 17:51 33.93830 -118.55890 2248 ft 269 kts 265°
2026-04-26 17:52 33.93651 -118.58215 2627 ft 293 kts 264°
2026-04-26 17:52 33.93446 -118.60733 3022 ft 309 kts 265°
2026-04-26 17:52 33.93239 -118.63338 3410 ft 320 kts 265°
2026-04-26 17:52 33.93034 -118.65974 3793 ft 316 kts 265°
2026-04-26 17:53 33.92831 -118.68645 4162 ft 315 kts 265°
2026-04-26 17:53 33.92626 -118.71283 4531 ft 320 kts 265°
2026-04-26 17:53 33.92416 -118.73969 4901 ft 325 kts 265°
2026-04-26 17:54 33.91986 -118.79458 5635 ft 335 kts 265°
2026-04-26 17:54 33.91765 -118.82271 6007 ft 332 kts 265°
2026-04-26 17:54 33.91750 -118.85108 6357 ft 340 kts 273°
2026-04-26 17:54 33.91853 -118.87891 6705 ft 343 kts 271°
2026-04-26 17:55 33.91911 -118.90745 6986 ft 335 kts 271°
2026-04-26 17:55 33.91986 -118.93533 7452 ft 336 kts 272°
2026-04-26 17:55 33.92077 -118.96378 8470 ft 343 kts 272°
2026-04-26 17:55 33.92164 -118.99271 9748 ft 348 kts 272°
2026-04-26 17:56 33.92179 -119.02200 10878 ft 354 kts 266°
2026-04-26 17:56 33.91509 -119.08163 12993 ft 365 kts 265°
2026-04-26 17:57 33.90864 -119.14319 14896 ft 377 kts 263°
2026-04-26 17:57 33.90506 -119.17463 15772 ft 382 kts 263°
2026-04-26 17:57 33.90155 -119.20659 16623 ft 389 kts 264°
2026-04-26 17:57 33.89807 -119.23878 17444 ft 395 kts 263°
2026-04-26 17:58 33.88694 -119.33927 19708 ft 411 kts 263°
2026-04-26 17:59 33.87932 -119.40794 21178 ft 417 kts 263°
2026-04-26 17:59 33.87543 -119.44274 21893 ft 420 kts 263°
2026-04-26 17:59 33.87151 -119.47773 22594 ft 423 kts 263°
2026-04-26 17:59 33.86756 -119.51296 23280 ft 426 kts 262°
2026-04-26 18:00 33.86357 -119.54848 23879 ft 429 kts 262°
2026-04-26 18:00 33.85959 -119.58369 24406 ft 431 kts 262°
2026-04-26 18:00 33.85553 -119.61957 24936 ft 434 kts 262°
2026-04-26 18:00 33.85143 -119.65572 25450 ft 436 kts 262°
2026-04-26 18:01 33.84732 -119.69194 25951 ft 439 kts 262°
2026-04-26 18:01 33.84315 -119.72844 26442 ft 441 kts 262°
2026-04-26 18:01 33.83897 -119.76508 26915 ft 443 kts 262°
2026-04-26 18:01 33.83475 -119.80186 27393 ft 445 kts 262°
2026-04-26 18:02 33.83049 -119.83890 27856 ft 448 kts 262°
2026-04-26 18:02 33.82911 -119.85092 28002 ft 448 kts 262°
2026-04-26 18:02 33.82189 -119.91345 28746 ft 452 kts 262°
2026-04-26 18:02 33.81756 -119.95084 29399 ft 450 kts 262°
2026-04-26 18:03 33.81325 -119.98795 30040 ft 447 kts 262°
2026-04-26 18:03 33.80894 -120.02493 30561 ft 447 kts 262°
2026-04-26 18:03 33.80462 -120.06190 31049 ft 446 kts 261°
2026-04-26 18:03 33.80031 -120.09878 31567 ft 445 kts 261°
2026-04-26 18:04 33.79605 -120.13504 32085 ft 443 kts 261°
2026-04-26 18:04 33.79174 -120.17165 32632 ft 441 kts 261°
2026-04-26 18:04 33.78744 -120.20809 33187 ft 439 kts 261°
2026-04-26 18:05 33.77888 -120.28041 34246 ft 435 kts 261°
2026-04-26 18:05 33.77462 -120.31624 34703 ft 433 kts 261°
2026-04-26 18:05 33.77034 -120.35206 35157 ft 431 kts 261°
2026-04-26 18:05 33.76608 -120.38767 35597 ft 430 kts 260°
2026-04-26 18:06 33.76183 -120.42320 36048 ft 428 kts 260°
2026-04-26 18:06 33.75758 -120.45859 36475 ft 427 kts 260°
2026-04-26 18:06 33.75338 -120.49346 36871 ft 427 kts 260°
2026-04-26 18:06 33.74911 -120.52876 37253 ft 426 kts 260°
2026-04-26 18:07 33.74483 -120.56415 37636 ft 426 kts 260°
2026-04-26 18:07 33.74055 -120.59949 37997 ft 426 kts 260°
2026-04-26 18:07 33.73634 -120.63409 38029 ft 420 kts 260°
2026-04-26 18:08 33.72794 -120.70291 38031 ft 417 kts 260°
2026-04-26 18:08 33.71948 -120.77186 38035 ft 416 kts 260°
2026-04-26 18:09 33.71101 -120.84062 38039 ft 416 kts 259°
2026-04-26 18:09 33.70393 -120.89777 38037 ft 416 kts 259°
2026-04-26 18:10 33.69537 -120.96665 38035 ft 417 kts 259°
2026-04-26 18:10 33.68679 -121.03538 38045 ft 416 kts 259°
2026-04-26 18:11 33.67818 -121.10406 38044 ft 416 kts 259°
2026-04-26 18:11 33.66952 -121.17273 38043 ft 416 kts 259°
2026-04-26 18:12 33.66086 -121.24115 38041 ft 416 kts 259°
2026-04-26 18:12 33.65211 -121.30994 38044 ft 417 kts 259°
2026-04-26 18:13 33.64332 -121.37876 38052 ft 417 kts 259°
2026-04-26 18:13 33.63453 -121.44728 38052 ft 417 kts 259°
2026-04-26 18:14 33.62563 -121.51626 38047 ft 421 kts 259°
2026-04-26 18:14 33.61659 -121.58609 38057 ft 423 kts 259°
2026-04-26 18:15 33.60754 -121.65570 38057 ft 422 kts 259°
2026-04-26 18:15 33.59843 -121.72538 38058 ft 423 kts 259°
2026-04-26 18:16 33.58929 -121.79501 38056 ft 422 kts 259°
2026-04-26 18:16 33.57556 -121.89900 38055 ft 422 kts 259°
2026-04-26 18:17 33.56635 -121.96844 38051 ft 421 kts 259°
2026-04-26 18:17 33.55707 -122.03802 38048 ft 422 kts 259°
2026-04-26 18:18 33.54782 -122.10712 38051 ft 422 kts 259°
2026-04-26 18:18 33.53845 -122.17675 38053 ft 423 kts 259°
2026-04-26 18:19 33.52904 -122.24648 38061 ft 423 kts 259°
2026-04-26 18:19 33.51959 -122.31611 38058 ft 423 kts 259°
2026-04-26 18:20 33.51011 -122.38567 38048 ft 423 kts 259°
2026-04-26 18:20 33.50218 -122.44361 38048 ft 424 kts 259°
2026-04-26 18:21 33.49100 -122.52497 38052 ft 424 kts 259°
2026-04-26 18:21 33.48081 -122.59412 38062 ft 423 kts 255°
2026-04-26 18:22 33.46672 -122.66252 38068 ft 423 kts 256°
2026-04-26 18:22 33.45266 -122.73102 38069 ft 423 kts 255°
2026-04-26 18:23 33.43851 -122.79936 38066 ft 423 kts 255°
2026-04-26 18:23 33.42434 -122.86786 38063 ft 423 kts 255°
2026-04-26 18:24 33.41013 -122.93622 38064 ft 424 kts 255°
2026-04-26 18:24 33.39585 -123.00479 38069 ft 425 kts 255°
2026-04-26 18:25 33.38151 -123.07339 38068 ft 424 kts 255°
2026-04-26 18:25 33.36714 -123.14192 38067 ft 424 kts 255°
2026-04-26 18:26 33.35285 -123.20990 38083 ft 423 kts 255°
2026-04-26 18:26 33.33831 -123.27887 38081 ft 427 kts 255°
2026-04-26 18:27 33.32377 -123.34761 38073 ft 426 kts 255°
2026-04-26 18:27 33.30917 -123.41647 38076 ft 427 kts 255°
2026-04-26 18:28 33.29460 -123.48497 38082 ft 428 kts 255°
2026-04-26 18:28 33.27989 -123.55394 38083 ft 427 kts 255°
2026-04-26 18:29 33.26520 -123.62260 38076 ft 426 kts 255°
2026-04-26 18:29 33.25047 -123.69121 38073 ft 426 kts 255°
2026-04-26 18:30 33.23571 -123.75982 38071 ft 427 kts 255°
2026-04-26 18:30 33.22087 -123.82858 38072 ft 427 kts 255°
2026-04-26 18:31 33.20601 -123.89721 38071 ft 427 kts 255°
2026-04-26 18:31 33.19112 -123.96583 38072 ft 427 kts 255°
2026-04-26 18:32 33.17616 -124.03456 38070 ft 428 kts 255°
2026-04-26 18:32 33.16121 -124.10301 38075 ft 428 kts 255°
2026-04-26 18:33 33.14618 -124.17169 38075 ft 427 kts 255°
2026-04-26 18:33 33.13111 -124.24032 38073 ft 426 kts 255°
2026-04-26 18:34 33.11603 -124.30880 38071 ft 427 kts 255°
2026-04-26 18:34 33.10086 -124.37752 38076 ft 428 kts 255°
2026-04-26 18:35 33.08575 -124.44574 38077 ft 428 kts 255°
2026-04-26 18:35 33.07447 -124.51531 38085 ft 428 kts 266°
2026-04-26 18:36 33.07884 -124.58613 38090 ft 430 kts 276°
2026-04-26 18:36 33.08816 -124.65667 38089 ft 429 kts 276°
2026-04-26 18:37 33.09758 -124.72657 38084 ft 429 kts 276°
2026-04-26 18:37 33.10691 -124.79689 38079 ft 429 kts 276°
2026-04-26 18:38 33.11625 -124.86730 38087 ft 430 kts 276°
2026-04-26 18:38 33.12557 -124.93794 38091 ft 431 kts 276°
2026-04-26 18:39 33.13483 -125.00844 38081 ft 430 kts 276°
2026-04-26 18:39 33.14402 -125.07876 38084 ft 428 kts 276°
2026-04-26 18:40 33.15317 -125.14906 38077 ft 428 kts 276°
2026-04-26 18:40 33.16227 -125.21932 38090 ft 428 kts 276°
2026-04-26 18:41 33.17139 -125.29003 38085 ft 430 kts 276°
2026-04-26 18:41 33.18041 -125.36019 38086 ft 430 kts 276°
2026-04-26 18:42 33.18943 -125.43081 38078 ft 430 kts 276°
2026-04-26 18:42 33.19842 -125.50150 38080 ft 430 kts 276°
2026-04-26 18:43 33.20737 -125.57219 38080 ft 430 kts 276°
2026-04-26 18:43 33.21627 -125.64275 38075 ft 429 kts 276°
2026-04-26 18:44 33.22512 -125.71329 38109 ft 429 kts 276°
2026-04-26 18:44 33.23399 -125.78445 38089 ft 433 kts 276°
2026-04-26 18:45 33.24278 -125.85507 38086 ft 432 kts 276°
2026-04-26 18:45 33.25157 -125.92622 38087 ft 432 kts 276°
2026-04-26 18:46 33.26032 -125.99725 38088 ft 432 kts 276°
2026-04-26 18:46 33.26897 -126.06793 38088 ft 432 kts 276°
2026-04-26 18:47 33.27763 -126.13895 38087 ft 432 kts 276°
2026-04-26 18:47 33.28626 -126.21015 38090 ft 436 kts 276°
2026-04-26 18:48 33.29493 -126.28192 38086 ft 434 kts 276°
2026-04-26 18:48 33.30351 -126.35337 38090 ft 434 kts 276°
2026-04-26 18:49 33.31207 -126.42500 38085 ft 435 kts 276°
2026-04-26 18:49 33.32059 -126.49668 38092 ft 435 kts 276°
2026-04-26 18:50 33.32899 -126.56769 38088 ft 433 kts 276°
2026-04-26 18:50 33.33740 -126.63912 38083 ft 433 kts 276°
2026-04-26 18:51 33.34582 -126.71103 38104 ft 439 kts 276°
2026-04-26 18:51 33.35422 -126.78300 38089 ft 435 kts 276°
2026-04-26 18:52 33.36114 -126.84278 38088 ft 435 kts 276°
2026-04-26 18:52 33.37082 -126.92663 38089 ft 436 kts 276°
2026-04-26 18:53 33.37907 -126.99854 38080 ft 435 kts 276°
2026-04-26 18:53 33.38586 -127.05798 38094 ft 433 kts 276°
2026-04-26 18:54 33.39398 -127.12951 38110 ft 435 kts 276°
2026-04-26 18:54 33.40217 -127.20199 38102 ft 439 kts 276°
2026-04-26 18:55 33.41030 -127.27422 38089 ft 437 kts 276°
2026-04-26 18:55 33.41836 -127.34636 38089 ft 436 kts 276°
2026-04-26 18:56 33.42638 -127.41839 38093 ft 436 kts 276°
2026-04-26 18:56 33.43435 -127.49044 38106 ft 436 kts 276°
2026-04-26 18:57 33.44094 -127.55031 38104 ft 436 kts 276°
2026-04-26 18:57 33.45014 -127.63436 38099 ft 440 kts 276°
2026-04-26 18:58 33.45804 -127.70685 38098 ft 438 kts 276°
2026-04-26 18:58 33.46586 -127.77919 38102 ft 437 kts 276°
2026-04-26 18:59 33.47366 -127.85158 38095 ft 438 kts 276°
2026-04-26 18:59 33.48136 -127.92353 38102 ft 438 kts 276°
2026-04-26 19:00 33.48906 -127.99584 38109 ft 436 kts 276°
2026-04-26 19:00 33.49669 -128.06806 38105 ft 442 kts 276°
2026-04-26 19:01 33.50439 -128.14114 38113 ft 441 kts 276°
2026-04-26 19:01 33.51202 -128.21405 38109 ft 440 kts 276°
2026-04-26 19:02 33.51958 -128.28666 38103 ft 439 kts 276°
2026-04-26 19:02 33.52584 -128.34719 38106 ft 439 kts 276°
2026-04-26 19:03 33.53453 -128.43170 38108 ft 440 kts 276°
2026-04-26 19:03 33.54199 -128.50464 38115 ft 444 kts 276°
2026-04-26 19:04 33.54945 -128.57803 38118 ft 442 kts 276°
2026-04-26 19:04 33.55685 -128.65127 38114 ft 442 kts 276°
2026-04-26 19:05 33.56779 -128.76034 38114 ft 440 kts 276°
2026-04-26 19:06 33.57505 -128.83340 38114 ft 441 kts 276°
2026-04-26 19:06 33.57763 -128.90657 38146 ft 440 kts 259°
2026-04-26 19:06 33.56927 -128.94187 38152 ft 442 kts 247°
2026-04-26 19:07 33.55397 -128.97395 38156 ft 446 kts 234°
2026-04-26 19:07 33.50945 -129.02655 38132 ft 452 kts 224°
2026-04-26 19:08 33.46283 -129.07683 38120 ft 449 kts 230°
2026-04-26 19:08 33.42291 -129.13391 38119 ft 446 kts 233°
2026-04-26 19:09 33.38153 -129.18954 38120 ft 448 kts 230°
2026-04-26 19:09 33.34010 -129.24509 38131 ft 447 kts 232°
2026-04-26 19:10 33.29884 -129.30083 38118 ft 448 kts 231°
2026-04-26 19:10 33.26432 -129.34688 38120 ft 448 kts 231°
2026-04-26 19:11 33.22143 -129.40457 38130 ft 447 kts 231°
2026-04-26 19:11 33.17995 -129.46000 38134 ft 447 kts 231°
2026-04-26 19:12 33.13862 -129.51521 38119 ft 443 kts 231°
2026-04-26 19:12 33.09744 -129.57017 38120 ft 445 kts 231°
2026-04-26 19:13 33.05614 -129.62516 38122 ft 444 kts 232°
2026-04-26 19:13 33.01493 -129.67999 38118 ft 444 kts 232°
2026-04-26 19:14 32.97393 -129.73443 38121 ft 444 kts 231°
2026-04-26 19:14 32.93236 -129.78955 38126 ft 444 kts 231°
2026-04-26 19:15 32.89108 -129.84420 38130 ft 443 kts 232°
2026-04-26 19:15 32.85008 -129.89840 38129 ft 443 kts 232°
2026-04-26 19:16 32.80881 -129.95288 38124 ft 443 kts 231°
2026-04-26 19:16 32.76750 -130.00732 38123 ft 443 kts 231°
2026-04-26 19:17 32.72623 -130.06162 38122 ft 438 kts 232°
2026-04-26 19:17 32.68535 -130.11538 38123 ft 440 kts 232°
2026-04-26 19:18 32.64426 -130.16926 38124 ft 440 kts 232°
2026-04-26 19:18 32.60347 -130.22272 38131 ft 439 kts 232°
2026-04-26 19:19 32.56248 -130.27634 38131 ft 438 kts 232°
2026-04-26 19:19 32.52158 -130.32978 38127 ft 438 kts 232°
2026-04-26 19:20 32.48188 -130.38156 38126 ft 437 kts 232°
2026-04-26 19:20 32.44020 -130.43585 38129 ft 438 kts 232°
2026-04-26 19:21 32.39910 -130.48931 38135 ft 439 kts 232°
2026-04-26 19:21 32.35803 -130.54265 38134 ft 438 kts 232°
2026-04-26 19:22 32.31698 -130.59588 38137 ft 435 kts 232°
2026-04-26 19:22 32.27620 -130.64871 38135 ft 435 kts 232°
2026-04-26 19:23 32.23562 -130.70118 38137 ft 435 kts 232°
2026-04-26 19:23 32.19473 -130.75397 38138 ft 435 kts 232°
2026-04-26 19:24 32.15385 -130.80669 38138 ft 435 kts 232°
2026-04-26 19:24 32.09249 -130.88567 38135 ft 435 kts 232°
2026-04-26 19:25 32.06516 -130.92080 38131 ft 434 kts 232°
2026-04-26 19:25 32.01089 -130.99045 38139 ft 433 kts 232°
2026-04-26 19:26 31.97703 -131.03384 38137 ft 433 kts 232°
2026-04-26 19:26 31.93624 -131.08603 38137 ft 433 kts 232°
2026-04-26 19:27 31.89551 -131.13807 38131 ft 426 kts 232°
2026-04-26 19:27 31.85582 -131.18876 38146 ft 429 kts 232°
2026-04-26 19:28 31.81566 -131.23990 38145 ft 428 kts 232°
2026-04-26 19:28 31.77514 -131.29149 38150 ft 429 kts 232°
2026-04-26 19:29 31.73464 -131.34295 38146 ft 429 kts 232°
2026-04-26 19:29 31.69424 -131.39422 38151 ft 426 kts 232°
2026-04-26 19:30 31.65395 -131.44530 38153 ft 426 kts 232°
2026-04-26 19:30 31.62045 -131.48768 38152 ft 426 kts 232°
2026-04-26 19:31 31.57336 -131.54721 38158 ft 425 kts 232°
2026-04-26 19:31 31.53319 -131.59790 38145 ft 422 kts 232°
2026-04-26 19:32 31.49311 -131.64846 38144 ft 422 kts 232°
2026-04-26 19:32 31.45337 -131.69846 38147 ft 420 kts 232°
2026-04-26 19:33 31.41344 -131.74866 38149 ft 420 kts 232°
2026-04-26 19:33 31.37389 -131.79827 38153 ft 418 kts 232°
2026-04-26 19:34 31.33420 -131.84810 38157 ft 418 kts 232°
2026-04-26 19:34 31.29450 -131.89778 38153 ft 418 kts 232°
2026-04-26 19:35 31.25476 -131.94748 38157 ft 418 kts 232°
2026-04-26 19:35 31.21503 -131.99709 38149 ft 418 kts 232°
2026-04-26 19:36 31.18205 -132.03822 38152 ft 417 kts 232°
2026-04-26 19:36 31.13559 -132.09610 38152 ft 417 kts 232°
2026-04-26 19:37 31.10247 -132.15050 38172 ft 409 kts 245°
2026-04-26 19:37 31.08109 -132.21110 38164 ft 406 kts 253°
2026-04-26 19:38 31.06272 -132.27331 38169 ft 405 kts 252°
2026-04-26 19:38 31.04433 -132.33545 38173 ft 405 kts 252°
2026-04-26 19:39 31.02587 -132.39778 38174 ft 406 kts 252°
2026-04-26 19:39 31.00742 -132.45988 38161 ft 404 kts 252°
2026-04-26 19:40 30.98900 -132.52179 38159 ft 404 kts 252°
2026-04-26 19:40 30.97065 -132.58335 38159 ft 404 kts 252°
2026-04-26 19:41 30.95214 -132.64531 38162 ft 404 kts 252°
2026-04-26 19:41 30.93674 -132.69675 38164 ft 404 kts 252°
2026-04-26 19:42 30.91517 -132.76871 38167 ft 405 kts 252°
2026-04-26 19:42 30.89656 -132.83062 38168 ft 405 kts 252°
2026-04-26 19:43 30.87789 -132.89264 38170 ft 405 kts 252°
2026-04-26 19:43 30.85919 -132.95462 38169 ft 406 kts 252°
2026-04-26 19:44 30.84058 -133.01619 38169 ft 405 kts 252°
2026-04-26 19:44 30.82188 -133.07792 38174 ft 404 kts 252°
2026-04-26 19:45 30.80316 -133.13962 38179 ft 404 kts 252°
2026-04-26 19:45 30.78441 -133.20128 38175 ft 405 kts 252°
2026-04-26 19:46 30.76561 -133.26300 38173 ft 405 kts 252°
2026-04-26 19:46 30.74674 -133.32483 38176 ft 405 kts 252°
2026-04-26 19:47 30.73104 -133.37615 38180 ft 405 kts 252°
2026-04-26 19:47 30.70906 -133.44790 38167 ft 404 kts 252°
2026-04-26 19:48 30.69021 -133.50929 38168 ft 403 kts 252°
2026-04-26 19:48 30.67136 -133.57058 38168 ft 402 kts 252°
2026-04-26 19:49 30.65248 -133.63183 38168 ft 403 kts 252°
2026-04-26 19:49 30.63351 -133.69327 38168 ft 405 kts 252°
2026-04-26 19:50 30.61445 -133.75489 38175 ft 405 kts 252°
2026-04-26 19:50 30.59550 -133.81603 38174 ft 405 kts 252°
2026-04-26 19:51 30.57640 -133.87752 38176 ft 405 kts 251°
2026-04-26 19:51 30.55729 -133.93894 38180 ft 405 kts 251°
2026-04-26 19:52 30.53812 -134.00044 38191 ft 408 kts 251°
2026-04-26 19:52 30.51882 -134.06221 38175 ft 406 kts 251°
2026-04-26 19:53 30.49955 -134.12380 38177 ft 406 kts 251°
2026-04-26 19:53 30.48020 -134.18552 38169 ft 407 kts 251°
2026-04-26 19:54 30.46096 -134.24676 38181 ft 407 kts 251°
2026-04-26 19:54 30.44147 -134.30868 38181 ft 409 kts 251°
2026-04-26 19:55 30.42200 -134.37044 38180 ft 408 kts 251°
2026-04-26 19:55 30.40254 -134.43204 38182 ft 407 kts 251°
2026-04-26 19:56 30.38294 -134.49397 38187 ft 410 kts 251°
2026-04-26 19:56 30.36330 -134.55591 38186 ft 409 kts 251°
2026-04-26 19:57 30.34363 -134.61781 38171 ft 409 kts 251°
2026-04-26 19:57 30.32393 -134.67970 38189 ft 410 kts 251°
2026-04-26 19:58 30.30417 -134.74167 38192 ft 410 kts 251°
2026-04-26 19:58 30.28444 -134.80342 38189 ft 409 kts 251°
2026-04-26 19:59 30.26470 -134.86508 38187 ft 409 kts 251°
2026-04-26 19:59 30.24501 -134.92650 38188 ft 409 kts 251°
2026-04-26 20:00 30.22515 -134.98829 38191 ft 410 kts 251°
2026-04-26 20:00 30.20521 -135.05026 38198 ft 412 kts 251°
2026-04-26 20:01 30.18525 -135.11214 38198 ft 411 kts 251°
2026-04-26 20:01 30.16525 -135.17403 38197 ft 407 kts 251°
2026-04-26 20:02 30.14551 -135.23506 38204 ft 412 kts 251°
2026-04-26 20:02 30.12872 -135.28678 38206 ft 409 kts 251°
2026-04-26 20:03 30.10543 -135.35851 38205 ft 411 kts 251°
2026-04-26 20:03 30.08524 -135.42054 38203 ft 416 kts 251°
2026-04-26 20:04 30.06510 -135.48228 38192 ft 410 kts 251°
2026-04-26 20:04 30.04506 -135.54366 38191 ft 410 kts 251°
2026-04-26 20:05 30.02487 -135.60533 38209 ft 414 kts 251°
2026-04-26 20:05 30.00441 -135.66773 38204 ft 413 kts 251°
2026-04-26 20:06 29.98417 -135.72936 38205 ft 414 kts 251°
2026-04-26 20:06 29.96372 -135.79148 38212 ft 415 kts 251°
2026-04-26 20:07 29.94309 -135.85406 38211 ft 416 kts 251°
2026-04-26 20:07 29.92245 -135.91655 38208 ft 416 kts 251°
2026-04-26 20:08 29.90182 -135.97888 38206 ft 415 kts 251°
2026-04-26 20:08 29.88118 -136.04115 38208 ft 418 kts 251°
2026-04-26 20:09 29.86042 -136.10364 38208 ft 417 kts 251°
2026-04-26 20:09 29.83966 -136.16604 38207 ft 418 kts 251°
2026-04-26 20:10 29.81869 -136.22897 38210 ft 421 kts 251°
2026-04-26 20:10 29.79779 -136.29152 38204 ft 417 kts 251°
2026-04-26 20:11 29.78041 -136.34350 38204 ft 418 kts 251°
2026-04-26 20:12 29.74535 -136.44805 38211 ft 422 kts 251°
2026-04-26 20:12 29.72774 -136.50044 38212 ft 422 kts 251°
2026-04-26 20:13 29.70672 -136.56290 38212 ft 418 kts 251°
2026-04-26 20:13 29.68552 -136.62579 38209 ft 424 kts 251°
2026-04-26 20:14 29.66417 -136.68895 38206 ft 423 kts 251°
2026-04-26 20:14 29.64283 -136.75200 38210 ft 424 kts 251°
2026-04-26 20:15 29.62142 -136.81516 38190 ft 424 kts 251°
2026-04-26 20:15 29.60049 -136.87677 38202 ft 420 kts 251°
2026-04-26 20:16 29.57923 -136.93928 38203 ft 420 kts 250°
2026-04-26 20:16 29.55781 -137.00209 38210 ft 424 kts 251°
2026-04-26 20:17 29.53628 -137.06514 38207 ft 423 kts 251°
2026-04-26 20:17 29.51481 -137.12788 38208 ft 421 kts 251°
2026-04-26 20:18 29.49350 -137.19007 38206 ft 421 kts 251°
2026-04-26 20:18 29.47185 -137.25313 38213 ft 425 kts 251°
2026-04-26 20:19 29.45016 -137.31616 38216 ft 424 kts 251°
2026-04-26 20:19 29.42848 -137.37907 38186 ft 424 kts 251°
2026-04-26 20:20 29.40673 -137.44211 38214 ft 426 kts 251°
2026-04-26 20:20 29.38484 -137.50538 38214 ft 426 kts 251°
2026-04-26 20:21 29.36298 -137.56848 38217 ft 426 kts 251°
2026-04-26 20:21 29.34103 -137.63172 38213 ft 429 kts 251°
2026-04-26 20:22 29.31887 -137.69543 38211 ft 428 kts 251°
2026-04-26 20:22 29.29700 -137.75825 38214 ft 428 kts 251°
2026-04-26 20:23 29.27487 -137.82165 38226 ft 429 kts 251°
2026-04-26 20:23 29.25253 -137.88557 38226 ft 432 kts 251°
2026-04-26 20:24 29.23015 -137.94946 38229 ft 431 kts 251°
2026-04-26 20:24 29.20788 -138.01292 38213 ft 427 kts 251°
2026-04-26 20:25 29.18572 -138.07602 38218 ft 433 kts 251°
2026-04-26 20:25 29.16316 -138.14005 38220 ft 434 kts 251°
2026-04-26 20:26 29.14060 -138.20403 38223 ft 434 kts 251°
2026-04-26 20:26 29.11791 -138.26826 38214 ft 437 kts 251°
2026-04-26 20:27 29.09525 -138.33224 38218 ft 434 kts 251°
2026-04-26 20:27 29.07254 -138.39632 38220 ft 435 kts 251°
2026-04-26 20:28 29.04973 -138.46052 38219 ft 437 kts 251°
2026-04-26 20:28 29.02666 -138.52536 38222 ft 441 kts 251°
2026-04-26 20:29 29.00357 -138.59011 38227 ft 440 kts 251°
2026-04-26 20:29 28.98039 -138.65503 38209 ft 441 kts 251°
2026-04-26 20:30 28.95724 -138.71974 38227 ft 446 kts 251°
2026-04-26 20:30 28.93376 -138.78522 38223 ft 446 kts 251°
2026-04-26 20:31 28.91020 -138.85086 38213 ft 446 kts 251°
2026-04-26 20:31 28.88680 -138.91586 38217 ft 441 kts 251°
2026-04-26 20:32 28.86341 -138.98082 38222 ft 443 kts 251°
2026-04-26 20:32 28.84009 -139.04540 38223 ft 443 kts 251°
2026-04-26 20:33 28.81652 -139.11058 38223 ft 446 kts 251°
2026-04-26 20:33 28.79268 -139.17642 38228 ft 446 kts 251°
2026-04-26 20:34 28.76918 -139.24110 38221 ft 442 kts 251°
2026-04-26 20:34 28.74573 -139.30564 38221 ft 443 kts 251°
2026-04-26 20:35 28.72192 -139.37103 38219 ft 450 kts 251°
2026-04-26 20:35 28.69787 -139.43690 38222 ft 451 kts 251°
2026-04-26 20:36 28.67376 -139.50259 38216 ft 444 kts 251°
2026-04-26 20:36 28.64987 -139.56772 38215 ft 449 kts 251°
2026-04-26 20:37 28.62562 -139.63357 38219 ft 451 kts 251°
2026-04-26 20:37 28.60147 -139.69910 38224 ft 452 kts 251°
2026-04-26 20:38 28.57712 -139.76505 38221 ft 452 kts 251°
2026-04-26 20:38 28.55268 -139.83112 38223 ft 452 kts 251°
2026-04-26 20:39 28.52816 -139.89730 38228 ft 454 kts 251°
2026-04-26 20:39 28.50354 -139.96360 38232 ft 455 kts 251°
2026-04-26 20:40 28.47878 -140.03024 38227 ft 461 kts 251°
2026-04-26 20:40 28.45617 -140.09089 38209 ft 461 kts 251°
2026-04-26 20:41 28.43147 -140.15705 38225 ft 456 kts 251°
2026-04-26 20:41 28.40667 -140.22346 38220 ft 460 kts 251°
2026-04-26 20:42 28.38140 -140.29091 38228 ft 463 kts 251°
2026-04-26 20:42 28.35620 -140.35810 38228 ft 463 kts 251°
2026-04-26 20:43 28.33087 -140.42547 38217 ft 460 kts 251°
2026-04-26 20:43 28.30570 -140.49240 38224 ft 465 kts 251°
2026-04-26 20:44 28.28005 -140.56034 38224 ft 466 kts 251°
2026-04-26 20:44 28.25853 -140.61733 38228 ft 467 kts 251°
2026-04-26 20:45 28.23285 -140.68520 38220 ft 470 kts 251°
2026-04-26 20:45 28.20701 -140.75333 38219 ft 466 kts 251°
2026-04-26 20:46 28.18139 -140.82086 38223 ft 468 kts 251°
2026-04-26 20:46 28.15574 -140.88826 38225 ft 468 kts 251°
2026-04-26 20:47 28.12972 -140.95659 38225 ft 474 kts 251°
2026-04-26 20:47 28.10345 -141.02532 38225 ft 475 kts 251°
2026-04-26 20:48 28.07731 -141.09364 38220 ft 468 kts 251°
2026-04-26 20:48 28.05130 -141.16163 38221 ft 471 kts 251°
2026-04-26 20:49 28.02534 -141.22921 38224 ft 471 kts 251°
2026-04-26 20:49 27.99921 -141.29719 38223 ft 471 kts 251°
2026-04-26 20:50 27.97301 -141.36519 38211 ft 473 kts 251°
2026-04-26 20:50 27.94674 -141.43327 38218 ft 471 kts 251°
2026-04-26 20:51 27.92023 -141.50188 38221 ft 473 kts 251°
2026-04-26 20:51 27.89376 -141.57023 38224 ft 473 kts 251°
2026-04-26 20:52 27.86716 -141.63885 38226 ft 479 kts 251°
2026-04-26 20:52 27.83997 -141.70876 38224 ft 480 kts 251°
2026-04-26 20:53 27.81310 -141.77780 38227 ft 480 kts 251°
2026-04-26 20:53 27.78629 -141.84655 38228 ft 483 kts 251°
2026-04-26 20:54 27.75906 -141.91625 38232 ft 484 kts 251°
2026-04-26 20:54 27.73186 -141.98574 38227 ft 483 kts 251°
2026-04-26 20:55 27.70472 -142.05496 38217 ft 481 kts 251°
2026-04-26 20:55 27.67743 -142.12452 38226 ft 487 kts 251°
2026-04-26 20:56 27.64986 -142.19450 38223 ft 489 kts 251°
2026-04-26 20:56 27.62238 -142.26427 38226 ft 489 kts 251°
2026-04-26 20:57 27.59465 -142.33450 38229 ft 493 kts 251°
2026-04-26 20:57 27.56677 -142.40489 38223 ft 487 kts 251°
2026-04-26 20:58 27.53906 -142.47495 38226 ft 490 kts 251°
2026-04-26 20:58 27.51116 -142.54514 38229 ft 492 kts 251°
2026-04-26 20:59 27.48319 -142.61555 38230 ft 495 kts 251°
2026-04-26 20:59 27.45493 -142.68642 38215 ft 495 kts 251°
2026-04-26 21:00 27.42694 -142.75655 38226 ft 489 kts 250°
2026-04-26 21:00 27.39883 -142.82697 38234 ft 496 kts 250°
2026-04-26 21:01 27.37047 -142.89768 38235 ft 495 kts 250°
2026-04-26 21:01 27.34215 -142.96830 38230 ft 495 kts 250°
2026-04-26 21:02 27.31305 -143.04071 38228 ft 495 kts 250°
2026-04-26 21:02 27.28463 -143.11127 38222 ft 495 kts 250°
2026-04-26 21:03 27.25617 -143.18185 38226 ft 496 kts 250°
2026-04-26 21:03 27.22779 -143.25210 38228 ft 496 kts 250°
2026-04-26 21:04 27.19909 -143.32303 38226 ft 500 kts 250°
2026-04-26 21:04 27.17024 -143.39413 38219 ft 497 kts 250°
2026-04-26 21:05 27.14165 -143.46454 38218 ft 496 kts 250°
2026-04-26 21:05 27.11290 -143.53519 38218 ft 497 kts 250°
2026-04-26 21:06 27.08428 -143.60540 38224 ft 498 kts 250°
2026-04-26 21:06 27.05544 -143.67606 38222 ft 498 kts 249°
2026-04-26 21:07 27.02665 -143.74640 38203 ft 491 kts 249°
2026-04-26 21:07 26.99807 -143.81623 38220 ft 496 kts 249°
2026-04-26 21:08 26.96913 -143.88667 38216 ft 497 kts 249°
2026-04-26 21:08 26.94016 -143.95716 38224 ft 498 kts 249°
2026-04-26 21:09 26.91115 -144.02760 38210 ft 499 kts 249°
2026-04-26 21:09 26.88226 -144.09760 38215 ft 495 kts 249°
2026-04-26 21:10 26.85803 -144.15627 38210 ft 497 kts 249°
2026-04-26 21:10 26.82890 -144.22667 38216 ft 498 kts 249°
2026-04-26 21:11 26.79966 -144.29720 38215 ft 501 kts 249°
2026-04-26 21:11 26.77034 -144.36779 38216 ft 500 kts 249°
2026-04-26 21:12 26.74106 -144.43817 38217 ft 496 kts 248°
2026-04-26 21:12 26.71200 -144.50794 38215 ft 496 kts 248°
2026-04-26 21:13 26.68259 -144.57842 38221 ft 500 kts 248°
2026-04-26 21:13 26.65318 -144.64872 38215 ft 499 kts 248°
2026-04-26 21:14 26.62371 -144.71912 38215 ft 499 kts 248°
2026-04-26 21:14 26.59445 -144.78885 38216 ft 498 kts 248°
2026-04-26 21:15 26.56505 -144.85883 38217 ft 497 kts 248°
2026-04-26 21:15 26.53569 -144.92857 38214 ft 497 kts 248°
2026-04-26 21:16 26.50617 -144.99859 38213 ft 498 kts 248°
2026-04-26 21:16 26.47641 -145.06908 38222 ft 502 kts 248°
2026-04-26 21:17 26.44658 -145.13957 38220 ft 501 kts 248°
2026-04-26 21:17 26.41679 -145.20988 38215 ft 501 kts 248°
2026-04-26 21:18 26.38715 -145.27972 38209 ft 502 kts 247°
2026-04-26 21:18 26.35698 -145.35070 38212 ft 511 kts 247°
2026-04-26 21:19 26.32622 -145.42291 38236 ft 516 kts 247°
2026-04-26 21:19 26.29546 -145.49498 38209 ft 513 kts 247°
2026-04-26 21:20 26.26502 -145.56626 38221 ft 514 kts 247°
2026-04-26 21:20 26.23424 -145.63814 38220 ft 513 kts 247°
2026-04-26 21:21 26.20349 -145.70987 38220 ft 512 kts 247°
2026-04-26 21:21 26.17270 -145.78156 38214 ft 513 kts 247°
2026-04-26 21:22 26.14173 -145.85354 38202 ft 515 kts 246°
2026-04-26 21:22 26.11089 -145.92508 38201 ft 513 kts 246°
2026-04-26 21:23 26.06464 -146.03219 38205 ft 511 kts 246°
2026-04-26 21:23 26.03418 -146.10259 38200 ft 504 kts 246°
2026-04-26 21:24 26.00358 -146.17322 38203 ft 508 kts 246°
2026-04-26 21:24 25.97304 -146.24364 38193 ft 501 kts 246°
2026-04-26 21:25 25.94277 -146.31345 38190 ft 503 kts 246°
2026-04-26 21:25 25.91220 -146.38371 38205 ft 506 kts 246°
2026-04-26 21:26 25.88159 -146.45402 38204 ft 506 kts 246°
2026-04-26 21:26 25.85107 -146.52399 38201 ft 506 kts 246°
2026-04-26 21:27 25.82035 -146.59430 38198 ft 505 kts 246°
2026-04-26 21:27 25.78974 -146.66426 38196 ft 503 kts 246°
2026-04-26 21:28 25.75909 -146.73419 38196 ft 504 kts 246°
2026-04-26 21:28 25.72834 -146.80424 38192 ft 504 kts 246°
2026-04-26 21:29 25.69770 -146.87391 38196 ft 506 kts 246°
2026-04-26 21:29 25.66678 -146.94411 38198 ft 506 kts 246°
2026-04-26 21:30 25.63614 -147.01356 38195 ft 498 kts 246°
2026-04-26 21:30 25.60551 -147.08292 38196 ft 501 kts 246°
2026-04-26 21:31 25.57474 -147.15243 38186 ft 504 kts 246°
2026-04-26 21:31 25.54396 -147.22189 38195 ft 504 kts 245°
2026-04-26 21:32 25.51300 -147.29162 38192 ft 504 kts 245°
2026-04-26 21:32 25.48173 -147.36194 38188 ft 496 kts 245°
2026-04-26 21:33 25.45127 -147.43039 38188 ft 499 kts 245°
2026-04-26 21:33 25.42034 -147.49971 38195 ft 503 kts 245°
2026-04-26 21:34 25.38936 -147.56905 38192 ft 503 kts 245°
2026-04-26 21:34 25.35832 -147.63844 38194 ft 504 kts 245°
2026-04-26 21:35 25.32710 -147.70811 38189 ft 505 kts 245°
2026-04-26 21:35 25.29642 -147.77645 38181 ft 496 kts 245°
2026-04-26 21:36 25.27060 -147.83393 38182 ft 499 kts 245°
2026-04-26 21:36 25.23440 -147.91431 38181 ft 499 kts 245°
2026-04-26 21:37 25.20341 -147.98308 38184 ft 503 kts 245°
2026-04-26 21:37 25.17211 -148.05236 38185 ft 503 kts 245°
2026-04-26 21:38 25.14095 -148.12126 38184 ft 494 kts 245°
2026-04-26 21:38 25.11028 -148.18901 38176 ft 495 kts 245°
2026-04-26 21:39 25.07938 -148.25709 38183 ft 499 kts 245°
2026-04-26 21:39 25.04845 -148.32518 38179 ft 497 kts 245°
2026-04-26 21:40 25.01724 -148.39377 38181 ft 498 kts 245°
2026-04-26 21:40 24.98620 -148.46188 38182 ft 498 kts 245°
2026-04-26 21:41 24.95516 -148.52989 38176 ft 494 kts 245°
2026-04-26 21:41 24.92418 -148.59769 38176 ft 496 kts 245°
2026-04-26 21:42 24.89307 -148.66563 38170 ft 496 kts 245°
2026-04-26 21:42 24.86205 -148.73331 38168 ft 495 kts 245°
2026-04-26 21:43 24.83096 -148.80101 38165 ft 495 kts 245°
2026-04-26 21:43 24.79985 -148.86867 38167 ft 496 kts 245°
2026-04-26 21:44 24.77367 -148.92553 38169 ft 497 kts 245°
2026-04-26 21:44 24.74244 -148.99326 38168 ft 496 kts 245°
2026-04-26 21:45 24.71116 -149.06102 38177 ft 497 kts 245°
2026-04-26 21:45 24.67978 -149.12887 38175 ft 498 kts 245°
2026-04-26 21:46 24.64820 -149.19706 38170 ft 498 kts 245°
2026-04-26 21:46 24.61676 -149.26485 38168 ft 493 kts 245°
2026-04-26 21:47 24.58577 -149.33159 38163 ft 492 kts 245°
2026-04-26 21:47 24.55448 -149.39885 38169 ft 495 kts 244°
2026-04-26 21:48 24.52309 -149.46623 38165 ft 495 kts 244°
2026-04-26 21:48 24.49186 -149.53319 38168 ft 495 kts 244°
2026-04-26 21:49 24.46027 -149.60079 38162 ft 495 kts 244°
2026-04-26 21:49 24.42876 -149.66814 38165 ft 494 kts 244°
2026-04-26 21:50 24.39767 -149.73452 38164 ft 492 kts 244°
2026-04-26 21:50 24.36622 -149.80153 38165 ft 493 kts 244°
2026-04-26 21:51 24.33482 -149.86838 38165 ft 493 kts 244°
2026-04-26 21:51 24.30321 -149.93556 38157 ft 497 kts 244°
2026-04-26 21:52 24.27152 -150.00280 38155 ft 496 kts 244°
2026-04-26 21:52 24.23989 -150.06983 38155 ft 490 kts 244°
2026-04-26 21:53 24.20878 -150.13568 38151 ft 488 kts 244°
2026-04-26 21:53 24.17744 -150.20189 38158 ft 491 kts 244°
2026-04-26 21:54 24.14596 -150.26831 38157 ft 491 kts 244°
2026-04-26 21:54 24.11444 -150.33475 38160 ft 491 kts 244°
2026-04-26 21:55 24.08312 -150.40066 38153 ft 491 kts 244°
2026-04-26 21:55 24.05160 -150.46690 38143 ft 488 kts 244°
2026-04-26 21:56 24.02026 -150.53266 38140 ft 489 kts 244°
2026-04-26 21:56 23.98884 -150.59850 38146 ft 488 kts 244°
2026-04-26 21:57 23.95720 -150.66472 38142 ft 488 kts 244°
2026-04-26 21:57 23.92568 -150.73058 38146 ft 488 kts 244°
2026-04-26 21:58 23.89409 -150.79651 38144 ft 492 kts 244°
2026-04-26 21:58 23.86231 -150.86275 38134 ft 491 kts 244°
2026-04-26 21:59 23.83116 -150.92756 38141 ft 486 kts 244°
2026-04-26 21:59 23.79964 -150.99309 38142 ft 487 kts 244°
2026-04-26 22:00 23.76808 -151.05857 38150 ft 487 kts 244°
2026-04-26 22:00 23.73641 -151.12423 38148 ft 488 kts 244°
2026-04-26 22:01 23.70474 -151.18979 38150 ft 488 kts 244°
2026-04-26 22:01 23.67302 -151.25536 38150 ft 489 kts 244°
2026-04-26 22:02 23.64685 -151.30935 38142 ft 481 kts 244°
2026-04-26 22:02 23.61007 -151.38524 38134 ft 487 kts 244°
2026-04-26 22:03 23.57834 -151.45053 38136 ft 486 kts 244°
2026-04-26 22:03 23.54686 -151.51526 38130 ft 486 kts 244°
2026-04-26 22:04 23.51514 -151.58039 38132 ft 486 kts 244°
2026-04-26 22:04 23.48336 -151.64555 38132 ft 487 kts 244°
2026-04-26 22:05 23.45166 -151.71045 38131 ft 481 kts 244°
2026-04-26 22:05 23.42014 -151.77495 38130 ft 483 kts 244°
2026-04-26 22:06 23.38851 -151.83954 38119 ft 483 kts 244°
2026-04-26 22:06 23.35684 -151.90414 38118 ft 483 kts 244°
2026-04-26 22:07 23.32513 -151.96874 38132 ft 486 kts 244°
2026-04-26 22:07 23.29346 -152.03317 38130 ft 485 kts 244°
2026-04-26 22:08 23.26159 -152.09791 38119 ft 484 kts 244°
2026-04-26 22:08 23.23001 -152.16197 38116 ft 481 kts 243°
2026-04-26 22:09 23.19837 -152.22612 38114 ft 481 kts 244°
2026-04-26 22:09 23.16680 -152.28998 38127 ft 484 kts 244°
2026-04-26 22:10 23.13496 -152.35433 38118 ft 482 kts 244°
2026-04-26 22:10 23.10313 -152.41859 38121 ft 483 kts 244°
2026-04-26 22:11 23.07130 -152.48278 38121 ft 483 kts 243°
2026-04-26 22:11 23.03948 -152.54682 38119 ft 479 kts 244°
2026-04-26 22:12 23.00762 -152.61080 38117 ft 482 kts 243°
2026-04-26 22:12 22.97750 -152.67068 38116 ft 482 kts 243°
2026-04-26 22:13 22.94548 -152.73461 38120 ft 482 kts 243°
2026-04-26 22:13 22.91337 -152.79843 38116 ft 482 kts 243°
2026-04-26 22:14 22.88122 -152.86234 38111 ft 484 kts 243°
2026-04-26 22:14 22.84893 -152.92642 38111 ft 483 kts 243°
2026-04-26 22:15 22.81665 -152.99039 38113 ft 484 kts 243°
2026-04-26 22:15 22.78431 -153.05442 38116 ft 484 kts 243°
2026-04-26 22:16 22.75196 -153.11838 37673 ft 486 kts 243°
2026-04-26 22:16 22.73588 -153.15014 36843 ft 475 kts 243°
2026-04-26 22:16 22.72012 -153.18123 35846 ft 467 kts 243°
2026-04-26 22:17 22.70458 -153.21193 34862 ft 461 kts 243°
2026-04-26 22:17 22.68923 -153.24221 33879 ft 456 kts 243°
2026-04-26 22:17 22.67419 -153.27182 32833 ft 451 kts 243°
2026-04-26 22:17 22.65915 -153.30142 31824 ft 445 kts 243°
2026-04-26 22:18 22.64433 -153.33060 30853 ft 439 kts 243°
2026-04-26 22:18 22.62972 -153.35934 29858 ft 432 kts 243°
2026-04-26 22:18 22.61533 -153.38763 28788 ft 425 kts 243°
2026-04-26 22:18 22.60118 -153.41543 27747 ft 418 kts 243°
2026-04-26 22:19 22.58726 -153.44277 26764 ft 412 kts 243°
2026-04-26 22:19 22.57351 -153.46973 25802 ft 405 kts 244°
2026-04-26 22:19 22.56455 -153.48733 25179 ft 401 kts 244°
2026-04-26 22:19 22.54684 -153.52208 23981 ft 393 kts 243°
2026-04-26 22:20 22.53371 -153.54780 22989 ft 387 kts 243°
2026-04-26 22:20 22.52494 -153.56499 22291 ft 383 kts 243°
2026-04-26 22:20 22.51215 -153.59004 21301 ft 377 kts 243°
2026-04-26 22:20 22.49958 -153.61465 20477 ft 368 kts 243°
2026-04-26 22:21 22.48749 -153.63824 20132 ft 350 kts 243°
2026-04-26 22:21 22.47576 -153.66126 20120 ft 359 kts 243°
2026-04-26 22:21 22.46379 -153.68468 20111 ft 354 kts 243°
2026-04-26 22:21 22.45181 -153.70802 20117 ft 355 kts 243°
2026-04-26 22:22 22.43983 -153.73143 20118 ft 355 kts 243°
2026-04-26 22:22 22.42784 -153.75484 20110 ft 356 kts 243°
2026-04-26 22:22 22.41581 -153.77829 20110 ft 356 kts 244°
2026-04-26 22:22 22.40385 -153.80164 20112 ft 355 kts 243°
2026-04-26 22:23 22.39186 -153.82500 20111 ft 356 kts 243°
2026-04-26 22:23 22.37984 -153.84837 20109 ft 357 kts 244°
2026-04-26 22:23 22.36822 -153.87205 20106 ft 354 kts 250°
2026-04-26 22:23 22.36328 -153.89771 20114 ft 349 kts 271°
2026-04-26 22:24 22.36387 -153.92265 20112 ft 346 kts 275°
2026-04-26 22:24 22.36497 -153.94863 20114 ft 350 kts 273°
2026-04-26 22:24 22.36557 -153.97493 20106 ft 346 kts 272°
2026-04-26 22:24 22.36595 -154.00102 20112 ft 353 kts 272°
2026-04-26 22:25 22.36644 -154.02749 20105 ft 347 kts 273°
2026-04-26 22:25 22.36705 -154.05334 20100 ft 347 kts 273°
2026-04-26 22:25 22.36763 -154.07964 20107 ft 347 kts 274°
2026-04-26 22:25 22.36816 -154.10522 20109 ft 348 kts 274°
2026-04-26 22:26 22.36868 -154.13146 20108 ft 351 kts 273°
2026-04-26 22:26 22.36922 -154.15764 20108 ft 348 kts 272°
2026-04-26 22:26 22.36977 -154.18386 20105 ft 351 kts 272°
2026-04-26 22:26 22.37027 -154.21015 20109 ft 347 kts 274°
2026-04-26 22:27 22.37079 -154.23630 20106 ft 350 kts 272°
2026-04-26 22:27 22.37130 -154.26240 20109 ft 344 kts 274°
2026-04-26 22:27 22.37184 -154.28835 20106 ft 351 kts 273°
2026-04-26 22:27 22.37235 -154.31479 20110 ft 348 kts 273°
2026-04-26 22:28 22.37284 -154.34086 20110 ft 352 kts 272°
2026-04-26 22:28 22.37335 -154.36732 20103 ft 349 kts 272°
2026-04-26 22:28 22.37385 -154.39340 20106 ft 347 kts 272°
2026-04-26 22:28 22.37435 -154.41976 20107 ft 350 kts 273°
2026-04-26 22:29 22.37482 -154.44576 20104 ft 345 kts 273°
2026-04-26 22:29 22.37533 -154.47200 20097 ft 354 kts 273°
2026-04-26 22:29 22.37579 -154.49825 20104 ft 346 kts 273°
2026-04-26 22:29 22.37628 -154.52460 20103 ft 355 kts 272°
2026-04-26 22:30 22.37672 -154.55073 20099 ft 347 kts 273°
2026-04-26 22:30 22.37720 -154.57678 20102 ft 351 kts 272°
2026-04-26 22:30 22.37767 -154.60344 20099 ft 345 kts 273°
2026-04-26 22:30 22.37814 -154.62952 20098 ft 349 kts 272°
2026-04-26 22:31 22.37859 -154.65578 20099 ft 349 kts 273°
2026-04-26 22:31 22.37904 -154.68202 20096 ft 351 kts 273°
2026-04-26 22:31 22.37950 -154.70839 20100 ft 352 kts 272°
2026-04-26 22:31 22.37993 -154.73461 20103 ft 346 kts 273°
2026-04-26 22:32 22.38036 -154.76087 20102 ft 351 kts 273°
2026-04-26 22:32 22.38080 -154.78690 20100 ft 344 kts 273°
2026-04-26 22:32 22.38126 -154.81279 20104 ft 353 kts 272°
2026-04-26 22:32 22.38166 -154.83936 20099 ft 346 kts 272°
2026-04-26 22:33 22.38208 -154.86543 20102 ft 352 kts 272°
2026-04-26 22:33 22.38292 -154.91786 20095 ft 352 kts 273°
2026-04-26 22:33 22.38332 -154.94421 20101 ft 347 kts 273°
2026-04-26 22:34 22.38373 -154.97016 20093 ft 347 kts 272°
2026-04-26 22:34 22.38413 -154.99663 20104 ft 351 kts 273°
2026-04-26 22:34 22.38453 -155.02299 20101 ft 348 kts 272°
2026-04-26 22:34 22.38491 -155.04914 20100 ft 351 kts 273°
2026-04-26 22:35 22.38529 -155.07526 20098 ft 345 kts 272°
2026-04-26 22:35 22.38568 -155.10154 20103 ft 350 kts 273°
2026-04-26 22:35 22.38607 -155.12756 20093 ft 346 kts 273°
2026-04-26 22:35 22.38646 -155.15381 20097 ft 351 kts 272°
2026-04-26 22:36 22.38681 -155.18001 20092 ft 347 kts 272°
2026-04-26 22:36 22.38718 -155.20633 20098 ft 352 kts 272°
2026-04-26 22:36 22.38753 -155.23263 20098 ft 348 kts 273°
2026-04-26 22:36 22.38789 -155.25879 20098 ft 350 kts 272°
2026-04-26 22:37 22.38824 -155.28470 20100 ft 345 kts 273°
2026-04-26 22:37 22.38860 -155.31061 20104 ft 349 kts 273°
2026-04-26 22:37 22.38896 -155.33717 20095 ft 351 kts 272°
2026-04-26 22:37 22.38929 -155.36336 20097 ft 351 kts 272°
2026-04-26 22:38 22.38963 -155.38974 20094 ft 349 kts 272°
2026-04-26 22:38 22.38995 -155.41588 20091 ft 348 kts 272°
2026-04-26 22:38 22.39029 -155.44231 20093 ft 349 kts 272°
2026-04-26 22:38 22.39060 -155.46841 20095 ft 346 kts 273°
2026-04-26 22:39 22.39094 -155.49467 20100 ft 354 kts 272°
2026-04-26 22:39 22.39125 -155.52098 20094 ft 347 kts 272°
2026-04-26 22:39 22.39157 -155.54740 20097 ft 354 kts 272°
2026-04-26 22:39 22.39185 -155.57335 20096 ft 346 kts 272°
2026-04-26 22:40 22.39217 -155.59956 20096 ft 353 kts 272°
2026-04-26 22:40 22.39247 -155.62585 20091 ft 347 kts 272°
2026-04-26 22:40 22.39278 -155.65209 20093 ft 351 kts 272°
2026-04-26 22:40 22.39305 -155.67848 20088 ft 349 kts 272°
2026-04-26 22:41 22.39335 -155.70476 20098 ft 352 kts 272°
2026-04-26 22:41 22.39362 -155.73126 20099 ft 351 kts 272°
2026-04-26 22:41 22.39390 -155.75748 20097 ft 350 kts 272°
2026-04-26 22:41 22.39417 -155.78387 20097 ft 348 kts 272°
2026-04-26 22:42 22.39446 -155.80994 20098 ft 349 kts 272°
2026-04-26 22:42 22.39473 -155.83643 20092 ft 351 kts 272°
2026-04-26 22:42 22.39498 -155.86271 20093 ft 351 kts 272°
2026-04-26 22:42 22.39524 -155.88921 20091 ft 351 kts 272°
2026-04-26 22:43 22.39548 -155.91510 20093 ft 348 kts 272°
2026-04-26 22:43 22.39574 -155.94151 20090 ft 352 kts 272°
2026-04-26 22:43 22.39597 -155.96775 20088 ft 348 kts 272°
2026-04-26 22:43 22.39623 -155.99406 20093 ft 355 kts 272°
2026-04-26 22:44 22.39645 -156.02052 20090 ft 349 kts 272°
2026-04-26 22:44 22.39670 -156.04699 20091 ft 355 kts 272°
2026-04-26 22:44 22.39690 -156.07341 20091 ft 348 kts 272°
2026-04-26 22:44 22.39714 -156.09975 20093 ft 354 kts 272°
2026-04-26 22:45 22.39737 -156.12608 20092 ft 349 kts 272°
2026-04-26 22:45 22.39759 -156.15244 20087 ft 351 kts 272°
2026-04-26 22:45 22.39779 -156.17888 20089 ft 350 kts 272°
2026-04-26 22:45 22.39800 -156.20523 20087 ft 353 kts 271°
2026-04-26 22:46 22.39745 -156.23178 20089 ft 353 kts 262°
2026-04-26 22:46 22.38878 -156.25653 20131 ft 360 kts 238°
2026-04-26 22:46 22.37337 -156.27808 20099 ft 361 kts 230°
2026-04-26 22:46 22.35639 -156.29791 20096 ft 361 kts 228°
2026-04-26 22:47 22.33946 -156.31803 20097 ft 361 kts 232°
2026-04-26 22:47 22.32384 -156.33886 20096 ft 359 kts 233°
2026-04-26 22:47 22.30824 -156.36000 20099 ft 361 kts 232°
2026-04-26 22:47 22.29220 -156.38083 20097 ft 361 kts 231°
2026-04-26 22:48 22.27595 -156.40160 20094 ft 361 kts 232°
2026-04-26 22:48 22.25989 -156.42251 20089 ft 361 kts 232°
2026-04-26 22:48 22.24392 -156.44341 20091 ft 360 kts 232°
2026-04-26 22:48 22.22793 -156.46425 20093 ft 360 kts 231°
2026-04-26 22:49 22.21191 -156.48500 20089 ft 360 kts 232°
2026-04-26 22:49 22.19609 -156.50554 20090 ft 360 kts 232°
2026-04-26 22:49 22.17995 -156.52654 20087 ft 360 kts 232°
2026-04-26 22:49 22.16391 -156.54738 20089 ft 360 kts 231°
2026-04-26 22:50 22.14809 -156.56789 20088 ft 360 kts 232°
2026-04-26 22:50 22.13184 -156.58896 20083 ft 362 kts 232°
2026-04-26 22:50 22.11593 -156.60963 20083 ft 361 kts 231°
2026-04-26 22:50 22.09990 -156.63037 20079 ft 361 kts 231°
2026-04-26 22:51 22.08379 -156.65126 20078 ft 361 kts 232°
2026-04-26 22:51 22.06774 -156.67205 20078 ft 361 kts 231°
2026-04-26 22:51 22.05166 -156.69288 20078 ft 362 kts 232°
2026-04-26 22:51 22.03557 -156.71371 20078 ft 361 kts 232°
2026-04-26 22:52 22.01946 -156.73454 20081 ft 361 kts 231°
2026-04-26 22:52 22.00337 -156.75536 20079 ft 361 kts 231°
2026-04-26 22:52 21.98726 -156.77617 20076 ft 361 kts 232°
2026-04-26 22:52 21.97121 -156.79695 20077 ft 361 kts 231°
2026-04-26 22:53 21.95507 -156.81775 20074 ft 361 kts 232°
2026-04-26 22:53 21.93920 -156.83826 20077 ft 361 kts 231°
2026-04-26 22:53 21.92314 -156.85900 20076 ft 361 kts 231°
2026-04-26 22:53 21.90703 -156.87980 20077 ft 361 kts 232°
2026-04-26 22:54 21.89093 -156.90055 20079 ft 361 kts 232°
2026-04-26 22:54 21.87479 -156.92134 20081 ft 363 kts 231°
2026-04-26 22:54 21.85865 -156.94218 20082 ft 361 kts 231°
2026-04-26 22:54 21.84251 -156.96296 20081 ft 362 kts 232°
2026-04-26 22:55 21.82639 -156.98374 20080 ft 362 kts 232°
2026-04-26 22:55 21.81023 -157.00458 20078 ft 362 kts 232°
2026-04-26 22:55 21.79409 -157.02541 20082 ft 363 kts 232°
2026-04-26 22:55 21.77792 -157.04625 20082 ft 361 kts 231°
2026-04-26 22:56 21.76179 -157.06702 20081 ft 362 kts 231°
2026-04-26 22:56 21.74563 -157.08783 20079 ft 360 kts 231°
2026-04-26 22:56 21.72956 -157.10853 20081 ft 361 kts 232°
2026-04-26 22:56 21.71345 -157.12927 20081 ft 361 kts 231°
2026-04-26 22:57 21.69752 -157.14972 20085 ft 361 kts 232°
2026-04-26 22:57 21.68141 -157.17046 20086 ft 361 kts 231°
2026-04-26 22:57 21.66533 -157.19113 20085 ft 360 kts 231°
2026-04-26 22:57 21.64920 -157.21185 20084 ft 361 kts 231°
2026-04-26 22:58 21.63307 -157.23256 20081 ft 362 kts 231°
2026-04-26 22:58 21.61688 -157.25336 20082 ft 364 kts 231°
2026-04-26 22:58 21.60066 -157.27418 19885 ft 366 kts 231°
2026-04-26 22:58 21.58412 -157.29538 19267 ft 372 kts 231°
2026-04-26 22:59 21.56744 -157.31681 18662 ft 375 kts 231°
2026-04-26 22:59 21.55057 -157.33839 18029 ft 378 kts 231°
2026-04-26 22:59 21.53365 -157.36008 17352 ft 380 kts 230°
2026-04-26 22:59 21.51663 -157.38188 16703 ft 381 kts 231°
2026-04-26 23:00 21.49956 -157.40373 16057 ft 382 kts 230°
2026-04-26 23:00 21.48246 -157.42562 15435 ft 382 kts 230°
2026-04-26 23:00 21.46537 -157.44748 14807 ft 382 kts 230°
2026-04-26 23:00 21.44831 -157.46929 14207 ft 381 kts 229°
2026-04-26 23:01 21.43128 -157.49106 13571 ft 380 kts 229°
2026-04-26 23:01 21.42002 -157.50544 13121 ft 379 kts 229°
2026-04-26 23:01 21.40304 -157.52713 12453 ft 378 kts 229°
2026-04-26 23:01 21.38071 -157.55562 11596 ft 375 kts 229°
2026-04-26 23:02 21.36396 -157.57698 10954 ft 373 kts 229°
2026-04-26 23:02 21.35273 -157.59130 10542 ft 371 kts 229°
2026-04-26 23:02 21.33615 -157.61243 9934 ft 368 kts 229°
2026-04-26 23:02 21.31969 -157.63341 9238 ft 366 kts 229°
2026-04-26 23:03 21.30361 -157.65388 8576 ft 363 kts 229°
2026-04-26 23:03 21.28734 -157.67458 7907 ft 360 kts 229°
2026-04-26 23:03 21.27172 -157.69505 6939 ft 347 kts 234°
2026-04-26 23:03 21.26319 -157.71842 6205 ft 328 kts 262°
2026-04-26 23:04 21.26111 -157.74165 5973 ft 296 kts 265°
2026-04-26 23:04 21.25961 -157.76284 5994 ft 286 kts 265°
2026-04-26 23:04 21.25779 -157.78342 5988 ft 271 kts 264°
2026-04-26 23:04 21.25590 -157.80271 5989 ft 248 kts 263°
2026-04-26 23:05 21.25419 -157.82072 5987 ft 236 kts 264°
2026-04-26 23:05 21.25262 -157.83794 5676 ft 232 kts 264°
2026-04-26 23:05 21.25105 -157.85499 5131 ft 227 kts 264°
2026-04-26 23:05 21.24951 -157.87165 4573 ft 222 kts 264°
2026-04-26 23:06 21.24798 -157.88811 4029 ft 220 kts 265°
2026-04-26 23:06 21.24648 -157.90415 3490 ft 213 kts 265°
2026-04-26 23:06 21.24500 -157.91987 2918 ft 209 kts 266°
2026-04-26 23:06 21.24364 -157.93504 2403 ft 205 kts 265°
2026-04-26 23:07 21.24225 -157.94985 2181 ft 187 kts 264°
2026-04-26 23:07 21.24097 -157.96286 2131 ft 165 kts 265°
2026-04-26 23:07 21.23992 -157.97459 2185 ft 167 kts 267°
2026-04-26 23:07 21.23877 -157.98781 2181 ft 173 kts 265°
2026-04-26 23:08 21.23803 -158.00045 2165 ft 167 kts 273°
2026-04-26 23:08 21.23818 -158.01248 2179 ft 166 kts 271°
2026-04-26 23:08 21.23808 -158.02492 2173 ft 164 kts 271°
2026-04-26 23:08 21.23802 -158.03741 2178 ft 167 kts 271°
2026-04-26 23:09 21.23802 -158.04980 2167 ft 170 kts 273°
2026-04-26 23:09 21.23808 -158.06256 2175 ft 164 kts 273°
2026-04-26 23:09 21.23809 -158.06982 2189 ft 173 kts 273°
2026-04-26 23:09 21.23807 -158.08225 2174 ft 166 kts 272°
2026-04-26 23:10 21.23806 -158.09460 2165 ft 164 kts 272°
2026-04-26 23:10 21.23801 -158.10700 2183 ft 169 kts 274°
2026-04-26 23:10 21.23810 -158.11950 2190 ft 176 kts 272°
2026-04-26 23:10 21.23802 -158.13236 2162 ft 168 kts 274°
2026-04-26 23:11 21.23807 -158.14454 2177 ft 159 kts 273°
2026-04-26 23:11 21.23805 -158.15710 2188 ft 172 kts 272°
2026-04-26 23:11 21.23802 -158.16948 2175 ft 169 kts 272°
2026-04-26 23:11 21.23804 -158.18249 2180 ft 167 kts 274°
2026-04-26 23:12 21.23802 -158.19503 2189 ft 178 kts 272°
2026-04-26 23:12 21.23944 -158.20759 2103 ft 164 kts 295°
2026-04-26 23:12 21.24704 -158.21666 2115 ft 159 kts 330°
2026-04-26 23:12 21.25747 -158.21988 2188 ft 166 kts
2026-04-26 23:13 21.26826 -158.21981 2183 ft 148 kts
2026-04-26 23:13 21.27903 -158.21968 2185 ft 148 kts
2026-04-26 23:13 21.28933 -158.21976 2195 ft 157 kts
2026-04-26 23:13 21.29972 -158.21972 2173 ft 147 kts
2026-04-26 23:14 21.31032 -158.21962 2168 ft 150 kts
2026-04-26 23:14 21.31970 -158.21465 2126 ft 151 kts 45°
2026-04-26 23:14 21.32490 -158.20527 2163 ft 154 kts 72°
2026-04-26 23:14 21.32518 -158.19423 2188 ft 148 kts 91°
2026-04-26 23:15 21.32495 -158.18315 2179 ft 143 kts 86°
2026-04-26 23:15 21.32508 -158.17250 2199 ft 143 kts 83°
2026-04-26 23:15 21.32511 -158.16193 2004 ft 144 kts 87°
2026-04-26 23:15 21.32497 -158.15163 1775 ft 132 kts 85°
2026-04-26 23:16 21.32509 -158.14135 1660 ft 136 kts 84°
2026-04-26 23:16 21.32522 -158.13191 1764 ft 139 kts 85°
2026-04-26 23:16 21.32526 -158.12155 1897 ft 135 kts 86°
2026-04-26 23:16 21.32532 -158.11112 2025 ft 146 kts 86°
2026-04-26 23:17 21.32529 -158.10066 2141 ft 136 kts 87°
2026-04-26 23:17 21.32525 -158.09016 2186 ft 137 kts 86°
2026-04-26 23:17 21.32528 -158.07979 2176 ft 136 kts 85°
2026-04-26 23:17 21.32533 -158.06948 2180 ft 139 kts 86°
2026-04-26 23:18 21.32525 -158.05861 2096 ft 145 kts 86°
2026-04-26 23:18 21.32529 -158.04794 1903 ft 142 kts 85°
2026-04-26 23:18 21.32525 -158.03802 1743 ft 139 kts 84°
2026-04-26 23:18 21.32531 -158.02747 1548 ft 136 kts 86°
2026-04-26 23:19 21.32529 -158.01720 1354 ft 142 kts 85°
2026-04-26 23:19 21.32525 -158.00650 1154 ft 139 kts 87°
2026-04-26 23:19 21.32522 -157.99645 985 ft 137 kts 85°
2026-04-26 23:19 21.32533 -157.98758 816 ft 140 kts 87°
2026-04-26 23:20 21.32506 -157.97730 646 ft 137 kts 88°
2026-04-26 23:20 21.32521 -157.96675 557 ft 150 kts 88°
2026-04-26 23:20 21.32528 -157.95534 514 ft 145 kts 92°
2026-04-26 23:20 21.32515 -157.94464 177 ft 139 kts 84°
2026-04-26 23:21 21.32532 -157.93947 27 ft 0 kts 83°
2026-04-26 23:21 21.32532 -157.93945 27 ft 2 kts 86°
2026-04-26 23:21 21.32531 -157.93924 27 ft 20 kts 92°
2026-04-26 23:22 21.32528 -157.93526 16 ft 54 kts 90°
2026-04-26 23:22 21.32526 -157.93148 13 ft 49 kts 90°
2026-04-26 23:22 21.32563 -157.92836 18 ft 34 kts 64°
2026-04-26 23:22 21.32695 -157.92593 19 ft 30 kts 60°
2026-04-26 23:23 21.32770 -157.92418 16 ft 22 kts 83°
2026-04-26 23:23 21.32783 -157.92277 18 ft 8 kts 58°
2026-04-26 23:23 21.32869 -157.92239 17 ft 25 kts 10°
2026-04-26 23:23 21.32979 -157.92168 15 ft 14 kts 85°
2026-04-26 23:24 21.32962 -157.92096 19 ft 0 kts 102°
2026-04-26 23:24 21.32961 -157.92089 18 ft 0 kts 102°